Location: Nairn
(57.5833°N, 3.8667°W)
Time: 17:04:57
(UTC+00:00)

SJ 16-02 - Pass Details

Date: 07 August 2020
Orbit: 607 x 616 km, 75.0° (Epoch: 23 September)

Event Time Altitude Azimuth Distance (km) Brightness Sun altitude
Exits shadow 01:25:19 - 136° (SE) 2,372 4.1 -14.9°
Reaches altitude 10° 01:27:03 10° 119° (ESE) 1,977 3.8 -14.8°
Maximum altitude 01:28:59 13° 93° (E) 1,800 3.9 -14.8°
Drops below altitude 10° 01:30:56 10° 67° (ENE) 1,982 4.5 -14.7°
Sets 01:34:20 0° 39° (NE) 2,891 6.2 -14.6°
